Location: Newark
(43.0000°N, 1.6781°W)
Time: 13:56:13
(UTC+00:00)

Transit 2A - Pass Details

Date: 27 April 2021
Orbit: 602 x 957 km, 66.7° (Epoch: 05 May)

Event Time Altitude Azimuth Distance (km) Brightness Sun altitude
Rises 03:50:00 0° 154° (SSE) 3,078 9.1 -13.2°
Reaches altitude 10° 03:55:03 10° 109° (ESE) 2,067 8.8 -12.5°
Maximum altitude 03:55:19 10° 105° (ESE) 2,060 8.8 -12.4°
Drops below altitude 10° 03:55:35 10° 102° (ESE) 2,059 8.9 -12.4°
Sets 04:00:23 0° 56° (NE) 2,903 11.2 -11.6°
